FMEEFIMP

Guest
Details From FMEE - St Denis Gillot
To FIMP - SIR SEEWOOSAGUR RAMGOOLAM INTL
Flight Number -
Tags decoded
Created
Modified
Stats Distance 131 nm / 242 km
Max Altitude 0 ft / 0 m
Waypoints 4
Social Downloads 4
Likes 0
Share VATSIM

Download

Looking for another format? Having issues loading an existing format? Contact us
Advertisement - Login to hide

Notes

Requested: FMEE SOBAT FF FIMP

Route

FMEE SOBAT FF FIMP

ID Type Via Altitude Latitude Longitude Leg Dist Tot Dist Heading (true) Name
O FMEE APT - 0 ft / 0 m -20.88931˚ 55.51775˚ - 0 nm - St Denis Gillot
SOBAT FIX - 0 ft / 0 m -20.72469˚ 56.26711˚ 43 nm 43 nm 77° / 77° -
FF NDB - 0 ft / 0 m -20.28161˚ 57.37172˚ 67 nm 110 nm 67° / 67° FLIC - EN - FLAC NDB
O FIMP APT - 0 ft / 0 m -20.43023˚ 57.68360˚ 19 nm 130 nm 117° / 117° SIR SEEWOOSAGUR RAMGOOLAM INTL

Altitude Profile

Advertisement - Login to hide

FMEE

Details ICAO FMEE (RUN)
Name St Denis Gillot
Region Comoros, Mayotte, Réunion and Madagascar
Timezone Indian/Reunion (UTC+4.0)
Stats Elevation 66 ft / 20 m (AMSL)
Location -20.889313° 55.517752°
Runways 2
Magnetic Variation 18.966° W

METAR

FMEE 250323Z 13017KT 6000 -SHRA BKN023 BKN056 21/19 Q1020 TEMPO SHRA

Decode

TAF

TAF FMEE 242300Z 2500/2606 14014KT 9999 SCT040 PROB40 TEMPO 2500/2509 4000 SHRA BKN025TCU BECMG 2503/2505 12016G26KT BECMG 2513/2515 14012KT BECMG 2503/2506 11013G23KT

Decode

Departure Runways

ID Width Length Bearing (true) Bearing (mag) Surface Threshold Offset Overrun Length
12 148 ft / 45 m 10,581 ft / 3,225 m 102.26° 121.23° Asphalt 397 ft / 121 m 148 ft / 45 m
14 148 ft / 45 m 8,842 ft / 2,695 m 116.55° 135.52° Asphalt 338 ft / 103 m 98 ft / 30 m
30 148 ft / 45 m 10,581 ft / 3,225 m 282.25° 301.22° Asphalt 0 ft / 0 m 0 ft / 0 m
32 148 ft / 45 m 8,842 ft / 2,695 m 296.54° 315.51° Asphalt 1,175 ft / 358 m 377 ft / 115 m

FIMP

Details ICAO FIMP (MRU)
Name SIR SEEWOOSAGUR RAMGOOLAM INTL
Region Mauritius
Timezone Indian/Mauritius (UTC+4.0)
Stats Elevation 186 ft / 57 m (AMSL)
Location -20.430235° 57.683602°
Runways 1
Magnetic Variation 18.389° W

METAR

FIMP 250300Z 10015KT 9999 VCSH SCT014 SCT050 24/19 Q1020

Decode

TAF

TAF FIMP 242330Z 2500/2606 10015G30KT 9999 BKN015 BKN050 TEMPO 2500/2506 5000 -SHRA FEW008 BKN013 BKN045 PROB30 TEMPO 2512/2600 7000 -SHRA FEW010 BKN015 BKN050

Decode

Destination Runways

ID Width Length Bearing (true) Bearing (mag) Surface Threshold Offset Overrun Length
14 148 ft / 45 m 11,037 ft / 3,364 m 117.22° 135.61° Asphalt 1,082 ft / 330 m 200 ft / 61 m
32 148 ft / 45 m 11,037 ft / 3,364 m 297.21° 315.60° Asphalt 0 ft / 0 m 0 ft / 0 m

Approach Navaids

Runway Type Ident Frequency Range Bearing (true) Bearing (mag) Slope Elevation
14 Localiser IPL 109.90 MHz 18 nm / 33 km 117.52° 135.91° - 186 ft / 57 m (AMSL)
14 Glidescope IPL 109.90 MHz 10 nm / 19 km 117.22° 135.60° 3.50° 186 ft / 57 m (AMSL)
14 DME IPL 109.90 MHz 18 nm / 33 km - - - 186 ft / 57 m (AMSL)

Popular Alternatives